Hourly Weather Rukomysh

Today, 14 April, Wednesday

Time Temperature Precipitation Wind Pressure Humidity
00:00 +4°C° 0 mm 3 mps 731 mmHg 83%
01:00 +4°C° 0 mm 3 mps 730 mmHg 84%
02:00 +4°C° 0 mm 3 mps 730 mmHg 84%
03:00 +5°C° 0 mm 2 mps 730 mmHg 85%
04:00 +5°C° 0 mm 2 mps 729 mmHg 85%
05:00 +4°C° 0 mm 2 mps 729 mmHg 86%
06:00 +5°C° 0.1 mm 2 mps 729 mmHg 87%
07:00 +5°C° 0.1 mm 2 mps 729 mmHg 88%
08:00 +5°C° 0.1 mm 2 mps 729 mmHg 89%
09:00 +4°C° 0.1 mm 3 mps 729 mmHg 89%
10:00 +4°C° 0.1 mm 3 mps 729 mmHg 89%
11:00 +4°C° 0.1 mm 4 mps 729 mmHg 89%
12:00 +3°C° 0.1 mm 4 mps 729 mmHg 90%
13:00 +3°C° 0.1 mm 4 mps 729 mmHg 91%
14:00 +1°C° 0.1 mm 4 mps 729 mmHg 92%
15:00 +1°C° 0 mm 5 mps 729 mmHg 93%
16:00 +1°C° 0 mm 5 mps 730 mmHg 93%
17:00 0°C° 0 mm 5 mps 730 mmHg 94%
18:00 0°C° 0 mm 5 mps 730 mmHg 94%
19:00 0°C° 0 mm 5 mps 730 mmHg 95%
20:00 -1°C° 0 mm 5 mps 730 mmHg 95%
21:00 -1°C° 0.1 mm 5 mps 730 mmHg 96%
22:00 -1°C° 0.1 mm 5 mps 730 mmHg 96%
23:00 -1°C° 0.1 mm 5 mps 730 mmHg 96%

Tomorrow, 15 April, Thursday

Time Temperature Precipitation Wind Pressure Humidity
00:00 -1°C° 0.5 mm 5 mps 730 mmHg 96%
01:00 -1°C° 0.5 mm 5 mps 730 mmHg 97%
02:00 -1°C° 0.5 mm 5 mps 730 mmHg 97%
03:00 -1°C° 0.3 mm 5 mps 730 mmHg 97%
04:00 -2°C° 0.3 mm 5 mps 730 mmHg 97%
05:00 -2°C° 0.3 mm 5 mps 730 mmHg 97%
06:00 -2°C° 0.3 mm 5 mps 730 mmHg 97%
07:00 -1°C° 0.3 mm 5 mps 731 mmHg 97%
08:00 -1°C° 0.3 mm 5 mps 731 mmHg 98%
09:00 -1°C° 0.1 mm 5 mps 731 mmHg 97%
10:00 -1°C° 0.1 mm 5 mps 731 mmHg 97%
11:00 -1°C° 0.1 mm 5 mps 731 mmHg 96%
12:00 0°C° 0 mm 5 mps 731 mmHg 96%
13:00 -1°C° 0 mm 6 mps 731 mmHg 96%
14:00 -1°C° 0 mm 6 mps 731 mmHg 95%
15:00 -1°C° 0 mm 6 mps 731 mmHg 94%
16:00 -1°C° 0 mm 6 mps 731 mmHg 93%
17:00 -1°C° 0 mm 6 mps 731 mmHg 92%
18:00 -1°C° 0 mm 6 mps 731 mmHg 93%
19:00 -1°C° 0 mm 6 mps 731 mmHg 94%
20:00 -2°C° 0 mm 6 mps 732 mmHg 95%
21:00 -2°C° 0 mm 6 mps 731 mmHg 95%
22:00 -2°C° 0 mm 6 mps 731 mmHg 95%
23:00 -2°C° 0 mm 6 mps 731 mmHg 95%

Day after tomorrow, 16 April, Friday

Time Temperature Precipitation Wind Pressure Humidity
00:00 -2°C° 0 mm 6 mps 731 mmHg 95%
01:00 -2°C° 0 mm 6 mps 731 mmHg 95%
02:00 -2°C° 0 mm 6 mps 731 mmHg 95%
03:00 -2°C° 0 mm 6 mps 731 mmHg 95%
04:00 -2°C° 0 mm 7 mps 731 mmHg 94%
05:00 -3°C° 0 mm 7 mps 731 mmHg 93%
06:00 -2°C° 0 mm 7 mps 731 mmHg 92%
07:00 -2°C° 0 mm 7 mps 731 mmHg 91%
08:00 -2°C° 0 mm 7 mps 731 mmHg 89%
09:00 -1°C° 0 mm 7 mps 731 mmHg 86%
10:00 0°C° 0 mm 8 mps 731 mmHg 83%
11:00 0°C° 0 mm 8 mps 732 mmHg 80%
12:00 +1°C° 0 mm 8 mps 732 mmHg 78%
13:00 +2°C° 0 mm 8 mps 732 mmHg 75%
14:00 +4°C° 0 mm 8 mps 732 mmHg 73%
15:00 +4°C° 0 mm 7 mps 732 mmHg 74%
16:00 +4°C° 0 mm 7 mps 732 mmHg 75%
17:00 +4°C° 0 mm 7 mps 732 mmHg 76%
18:00 +3°C° 0 mm 6 mps 732 mmHg 79%
19:00 +2°C° 0 mm 6 mps 732 mmHg 82%
20:00 +1°C° 0 mm 5 mps 732 mmHg 85%
21:00 +1°C° 0 mm 5 mps 733 mmHg 88%
22:00 +1°C° 0 mm 5 mps 733 mmHg 90%
23:00 0°C° 0 mm 5 mps 733 mmHg 92%

17 April, Saturday

Time Temperature Precipitation Wind Pressure Humidity
00:00 0°C° 0 mm 5 mps 733 mmHg 93%
01:00 0°C° 0 mm 4 mps 733 mmHg 93%
02:00 0°C° 0 mm 4 mps 733 mmHg 94%
03:00 0°C° 0.1 mm 4 mps 733 mmHg 94%
04:00 0°C° 0.1 mm 4 mps 733 mmHg 94%
05:00 +1°C° 0.1 mm 3 mps 733 mmHg 94%
06:00 +2°C° 0.1 mm 3 mps 733 mmHg 93%
07:00 +2°C° 0.1 mm 3 mps 733 mmHg 91%
08:00 +2°C° 0.1 mm 3 mps 733 mmHg 90%
09:00 +4°C° 0 mm 2 mps 733 mmHg 87%
10:00 +5°C° 0 mm 2 mps 733 mmHg 83%
11:00 +5°C° 0 mm 2 mps 734 mmHg 80%
12:00 +6°C° 0 mm 2 mps 734 mmHg 77%
13:00 +8°C° 0 mm 1 mps 734 mmHg 73%
14:00 +9°C° 0 mm 1 mps 734 mmHg 70%
15:00 +9°C° 0 mm 1 mps 734 mmHg 70%
16:00 +8°C° 0 mm 2 mps 733 mmHg 71%
17:00 +8°C° 0 mm 2 mps 733 mmHg 71%
18:00 +8°C° 0 mm 2 mps 733 mmHg 74%
19:00 +7°C° 0 mm 2 mps 734 mmHg 77%
20:00 +6°C° 0 mm 2 mps 734 mmHg 80%
21:00 +6°C° 0 mm 2 mps 734 mmHg 80%
22:00 +6°C° 0 mm 2 mps 734 mmHg 79%
23:00 +6°C° 0 mm 2 mps 734 mmHg 79%

18 April, Sunday

Time Temperature Precipitation Wind Pressure Humidity
00:00 +6°C° 0 mm 2 mps 734 mmHg 80%
01:00 +4°C° 0 mm 3 mps 734 mmHg 81%
02:00 +4°C° 0 mm 3 mps 733 mmHg 82%
03:00 +4°C° 0 mm 3 mps 733 mmHg 82%
04:00 +4°C° 0 mm 3 mps 733 mmHg 83%
05:00 +4°C° 0 mm 3 mps 733 mmHg 83%
06:00 +5°C° 0 mm 4 mps 733 mmHg 81%
07:00 +5°C° 0 mm 4 mps 733 mmHg 79%
08:00 +6°C° 0 mm 4 mps 733 mmHg 77%
09:00 +7°C° 0 mm 5 mps 733 mmHg 71%
10:00 +9°C° 0 mm 5 mps 733 mmHg 65%
11:00 +10°C° 0 mm 5 mps 733 mmHg 59%
12:00 +10°C° 0 mm 5 mps 733 mmHg 59%
13:00 +10°C° 0 mm 5 mps 733 mmHg 59%
14:00 +10°C° 0 mm 5 mps 733 mmHg 58%
15:00 +10°C° 0.1 mm 5 mps 733 mmHg 62%
16:00 +9°C° 0.1 mm 5 mps 733 mmHg 66%
17:00 +10°C° 0.1 mm 4 mps 733 mmHg 70%
18:00 +8°C° 0.6 mm 4 mps 733 mmHg 76%
19:00 +7°C° 0.6 mm 4 mps 733 mmHg 83%
20:00 +6°C° 0.6 mm 4 mps 734 mmHg 89%
21:00 +6°C° 0.8 mm 4 mps 733 mmHg 90%
22:00 +6°C° 0.8 mm 4 mps 733 mmHg 91%
23:00 +6°C° 0.8 mm 4 mps 733 mmHg 93%

19 April, Monday

Time Temperature Precipitation Wind Pressure Humidity
00:00 +6°C° 0.6 mm 5 mps 733 mmHg 93%
01:00 +6°C° 0.6 mm 5 mps 733 mmHg 93%
02:00 +6°C° 0.6 mm 5 mps 733 mmHg 93%
03:00 +6°C° 0.4 mm 5 mps 733 mmHg 92%
04:00 +6°C° 0.4 mm 5 mps 733 mmHg 91%
05:00 +6°C° 0.4 mm 5 mps 733 mmHg 90%
06:00 +6°C° 0 mm 5 mps 733 mmHg 89%
07:00 +6°C° 0 mm 4 mps 733 mmHg 88%
08:00 +7°C° 0 mm 4 mps 734 mmHg 87%
09:00 +7°C° 0 mm 5 mps 734 mmHg 83%
10:00 +8°C° 0 mm 6 mps 734 mmHg 79%
11:00 +9°C° 0 mm 6 mps 734 mmHg 75%
12:00 +9°C° 0 mm 6 mps 734 mmHg 76%
13:00 +9°C° 0 mm 6 mps 733 mmHg 77%
14:00 +9°C° 0 mm 6 mps 733 mmHg 78%
15:00 +9°C° 0 mm 6 mps 733 mmHg 77%
16:00 +9°C° 0 mm 5 mps 732 mmHg 77%
17:00 +9°C° 0 mm 5 mps 732 mmHg 76%
18:00 +10°C° 0 mm 4 mps 731 mmHg 78%
19:00 +8°C° 0 mm 4 mps 731 mmHg 80%
20:00 +9°C° 0 mm 3 mps 731 mmHg 82%
21:00 +8°C° 0 mm 4 mps 730 mmHg 81%
22:00 +8°C° 0 mm 5 mps 730 mmHg 79%
23:00 +8°C° 0 mm 6 mps 729 mmHg 78%
Show more